Location: Elstree
(51.6403°N, 0.2969°W)
Time: 19:09:17
(UTC+00:00)

SL-4 R/B - Pass Details

Date: 03 March 2021
Orbit: 428 x 663 km, 51.6° (Epoch: 17 April)

Event Time Altitude Azimuth Distance (km) Brightness Sun altitude
Rises 18:09:22 0° 270° (W) 2,535 8.2 -4.5°
Reaches altitude 10° 18:11:35 10° 271° (W) 1,622 6.3 -4.9°
Maximum altitude 18:15:13 88° 352° (N) 454 1.6 -5.5°
Drops below altitude 10° 18:18:41 10° 91° (E) 1,544 3.6 -6.0°
Enters shadow 18:19:05 - 91° (E) 1,709 3.8 -6.1°
